FW8607 Weather Reports


Display with metric or nautical units.
time (UTC)temp
F
wind
direction
speed
MPH
gust
MPH
rain 1hr
in
rain 24hr
in
rain mn
in
humidity
%
barometer
mb
20260510120023 54 315 1.0 3.0 0.00 0.00 0.00 95 1011.7
20260510113023 55 135 1.0 4.0 0.00 0.00 0.00 95 1011.6
20260510110044 55 0.0 2.0 0.00 0.00 0.00 95 1011.8
20260510103023 55 0.0 3.0 0.00 0.00 0.00 95 1011.8
20260510100023 55 0.0 2.0 0.00 0.00 0.00 95 1012.0
20260510093022 55 0.0 0.0 0.00 0.00 0.00 95 1012.0
20260510090022 55 0.0 3.0 0.00 0.00 0.00 94 1012.2
20260510083022 56 113 2.0 4.0 0.00 0.00 0.00 94 1012.4
20260510080022 56 0.0 0.0 0.00 0.00 0.00 94 1012.6
20260510073022 56 0.0 3.0 0.00 0.00 0.00 94 1012.7
20260510070022 56 0.0 1.0 0.00 0.00 0.00 93 1012.8
20260510063022 56 248 1.0 4.0 0.00 0.00 0.00 93 1012.9
20260510060022 56 248 2.0 4.0 0.00 0.00 0.00 92 1012.8
20260510053022 56 248 3.0 5.0 0.00 0.00 0.00 91 1012.7
20260510050023 57 248 3.0 5.0 0.00 0.00 0.00 90 1012.5
20260510043022 57 248 4.0 8.0 0.00 0.00 0.00 90 1012.4
20260510040021 58 270 4.0 7.0 0.00 0.00 0.00 89 1012.0
20260510033023 59 248 4.0 8.0 0.00 0.00 0.00 87 1011.5
20260510030022 60 270 6.0 9.0 0.00 0.00 0.00 84 1011.1
20260510023023 63 270 6.0 9.0 0.00 0.00 0.00 79 1011.0
20260510020023 66 248 8.0 13.0 0.00 0.00 0.00 73 1011.2
20260510013021 70 270 8.0 13.0 0.00 0.00 0.00 67 1010.9
20260510010021 73 270 7.0 11.0 0.00 0.00 0.00 62 1011.1
20260510003021 74 270 7.0 12.0 0.00 0.00 0.00 59 1011.0
20260510000023 74 248 7.0 14.0 0.00 0.00 0.00 57 1011.0
20260509233024 73 248 9.0 15.0 0.00 0.00 0.00 62 1010.9
20260509230043 73 248 10.0 17.0 0.00 0.00 0.00 63 1011.2
20260509223023 73 248 11.0 19.0 0.00 0.00 0.00 62 1011.4
20260509220023 75 248 10.0 18.0 0.00 0.00 0.00 60 1011.6
20260509213043 75 248 11.0 18.0 0.00 0.00 0.00 61 1011.8
20260509210041 75 248 10.0 17.0 0.00 0.00 0.00 60 1011.8
20260509203021 76 248 11.0 18.0 0.00 0.00 0.00 59 1012.0
20260509200023 78 248 8.0 15.0 0.00 0.00 0.00 58 1012.2
20260509193022 78 248 8.0 14.0 0.00 0.00 0.00 58 1012.4
20260509190023 76 293 7.0 13.0 0.00 0.00 0.00 62 1012.4
20260509183042 75 293 6.0 11.0 0.00 0.00 0.00 64 1012.7
20260509180044 73 338 5.0 11.0 0.00 0.00 0.00 68 1012.7
20260509173022 70 338 4.0 9.0 0.00 0.00 0.00 72 1012.9
20260509170043 67 315 3.0 9.0 0.00 0.00 0.00 78 1012.8
20260509163042 64 293 4.0 9.0 0.00 0.00 0.00 86 1012.7
20260509160022 61 338 1.0 5.0 0.00 0.00 0.00 94 1012.6
20260509153023 59 90 2.0 6.0 0.00 0.00 0.00 96 1012.7
20260509150022 57 90 1.0 5.0 0.00 0.00 0.00 97 1012.8
20260509143022 55 135 1.0 5.0 0.00 0.00 0.00 96 1012.8
20260509140022 56 90 1.0 4.0 0.00 0.00 0.00 96 1012.8
20260509133022 56 68 3.0 5.0 0.00 0.00 0.00 96 1012.6
20260509130022 56 113 2.0 4.0 0.00 0.00 0.00 96 1012.7
20260509123042 56 135 1.0 3.0 0.00 0.00 0.00 96 1012.6